Other Public Products
Issued by NWS Grand Forks, ND

Home | Current Version | Previous Version | Text Only | Print | Product List | Glossary Off
Versions: 1 2 3 4 5 6 7 8 9 10 11 12 13 14 15 16 17 18 19 20 21 22 23 24 25 26 27 28 29 30 31 32 33 34 35 36 37 38 39 40 41 42 43 44 45 46 47 48 49 50

000
FPUS83 KFGF 010531
OPUFGF
PRAIRIE TO PINES WEATHER ROUNDUP
NATIONAL WEATHER SERVICE EASTERN NORTH DAKOTA/GRAND FORKS ND
1200 AM CDT SAT OCT 01 2016

 **SATELLITE DATA USED TO AUGMENT SKY COVER AT AUTOMATED STATIONS**
 *****  WEATHER ACROSS EASTERN NORTH DAKOTA  *****

CITY           SKY/WX    TMP DP  RH WIND       PRES   REMARKS
GRAND FORKS    CLOUDY    57  49  74 SE10      30.17F
GRAND FORKS AF PTCLDY    56  50  81 S7        30.17F
GRAND CITY NWS   N/A     55 N/A N/A S7          N/A
BUXTON           N/A     62  60  93 SE8         N/A
DEVILS LAKE    CLOUDY    59  47  64 SE15      30.14S
FARGO          CLOUDY    58  48  69 SE12      30.17F
WAHPETON ARPT  PTCLDY    54  45  71 E8        30.19S
$$

 *****  WEATHER ACROSS CENTRAL AND WESTERN NORTH DAKOTA  *****

CITY           SKY/WX    TMP DP  RH WIND       PRES   REMARKS
JAMESTOWN      MOCLDY    57  49  74 SE13      30.13F
BISMARCK       PTCLDY    61  46  57 SE9       30.07S
MINOT          CLEAR     56  48  74 SE10      30.04F
MINOT AFB      CLEAR     54  48  81 SE9       30.04R
GARRISON         N/A     56  48  74 SE8       30.04S
WILLISTON      CLEAR     56  48  74 CALM      29.98S
DICKINSON      CLEAR     52  45  77 SE9       29.99F
HETTINGER      CLEAR     55  46  71 SE8       30.02F
$$

 *****  OTHER OBSERVATIONS NORTHEAST NORTH DAKOTA  *****

CITY           SKY/WX    TMP DP  RH WIND       PRES   REMARKS
WALHALLA       FAIR      57  54  88 SE9       30.15F
LANGDON        FAIR      59  52  77 S17       30.15S
CAVALIER       FAIR      57  50  77 S7        30.16F
GRAFTON        FAIR      57  54  88 SE9       30.19S
CANDO          MOCLDY    57  50  77 SE9       30.14F
FORT TOTTEN      N/A     59  47  64 S12       29.95S
ROLLA            N/A     57  48  72 S9        30.13S
RUGBY          FAIR      57  50  77 SE10      30.09S
 ***** THE ABOVE OBSERVATIONS ARE NON NWS ARE NOT QUALITY
        CONTROLLED AND MAY MIS-REPORT RAIN FOR SNOW...
$$

 *****  OTHER OBSERVATIONS SOUTHEAST NORTH DAKOTA *****

CITY           SKY/WX    TMP DP  RH WIND       PRES   REMARKS
COOPERSTOWN    FAIR      55  48  76 SE10      30.17S
VALLEY CITY    FAIR      55  50  82 SE10      30.18S
OAKES          NOT AVBL
GWINNER        FAIR      55  48  76 SE12      30.16F
SHEYENNE NWR     N/A     51  46  84 SE6       29.95S
BUFFALO          N/A     53  46  76 SE12        N/A
WYNDMERE         N/A     52  48  87 SE2         N/A
 ***** THE ABOVE OBSERVATIONS ARE NON NWS ARE NOT QUALITY
       CONTROLLED AND MAY MIS-REPORT RAIN FOR SNOW...
$$

  *****  WEATHER ACROSS NORTHERN MINNESOTA  *****

CITY           SKY/WX    TMP DP  RH WIND       PRES   REMARKS
FLAG ISLAND    CLOUDY    55  52  88 SE3       30.24S
WARROAD        CLOUDY    52  48  87 SE3       30.24F
ROSEAU         CLOUDY    55  50  82 SE6       30.23S
HALLOCK        PTCLDY    57  52  82 SE10      30.18F
THF RVR FALLS  CLOUDY    54  51  90 SE10      30.22F
HALSTAD          N/A     52  48  87 SE8         N/A
FOSSTON        PTCLDY    50  46  87 SE5       30.22F
BAUDETTE       PTCLDY    50  48  93 SE8       30.26S
WASKISH        PTCLDY    46  45  93 E3        30.25S
CROOKSTON      CLOUDY    54  50  87 SE8       30.20S
$$
  *****  WEATHER ACROSS CENTRAL AND WEST MINNESOTA  *****

CITY           SKY/WX    TMP DP  RH WIND       PRES   REMARKS
BEMIDJI        CLOUDY    51  46  86 E7        30.24S
PARK RAPIDS    CLEAR     52  44  74 E8        30.23F
WADENA         CLEAR     48  45  87 E5        30.22F
DETROIT LAKES  CLOUDY    54  46  76 SE6       30.22F
MOORHEAD       PTCLDY    55  48  76 SE7       30.19F
FERGUS FALLS   CLOUDY    55  46  71 E7        30.22S
ELBOW LAKE     FAIR      53  49  87 SE9       30.20F
MORRIS MN      CLEAR     48  46  93 E7        30.19S
STAPLES        CLEAR     46  46 100 CALM      30.23F
WHEATON        CLEAR     48  46  93 SE8       30.20F
$$
  *****  WEATHER ELSEWHERE ACROSS MINNESOTA  *****

CITY           SKY/WX    TMP DP  RH WIND       PRES   REMARKS
DULUTH         CLOUDY    51  51 100 E7        30.27R FOG
INTRNTL FALLS  CLOUDY    47  46  97 SE3       30.27F
ELY            CLEAR     41  39  93 CALM      30.28F
CLOQUET        CLOUDY    52  48  87 E9        30.26S FOG
BRAINERD       CLOUDY    51  50  96 E5        30.24F
HIBBING        CLEAR     39  39 100 CALM      30.27F FOG
ALEXANDRIA     CLEAR     53  50  89 E7        30.23S
SAINT CLOUD    MOCLDY    52  52 100 E7        30.22S
MINNEAPOLIS    MOCLDY    60  52  74 NE8       30.20S
$$

  *****  WEATHER ACROSS SOUTH DAKOTA  *****

CITY           SKY/WX    TMP DP  RH WIND       PRES   REMARKS
SIOUX FALLS    CLOUDY    50  45  83 NE5       30.18S
BROOKINGS      PTCLDY    54  47  77 SE9       30.18S
WATERTOWN      PTCLDY    57  45  64 SE7       30.18S
HURON          CLOUDY    53  45  74 SE7       30.14S
SISSETON         N/A     46  43  89 CALM      30.18S
ABERDEEN       PTCLDY    55  45  68 SE7       30.14S
MITCHELL       PTCLDY    52  45  77 SE6       30.15F
PIERRE         PTCLDY    61  45  55 SE14      30.06S
MOBRIDGE       PTCLDY    63  43  48 SE17      30.04S
RAPID CITY     CLEAR     58  48  69 SE6       30.03S
$$

  *****  SOME WEATHER IN NEARBY STATES *****

CITY           SKY/WX    TMP DP  RH WIND       PRES   REMARKS
GLASGOW MT     CLEAR     60  53  77 E9        29.94S
GREAT FALLS MT PTCLDY    64  41  42 S9        29.96S
CHEYENNE WY    CLEAR     51  45  79 W7        30.22S
SCOTTSBLUFF NE CLEAR     55  47  74 E8        30.11S
OMAHA NE       PTCLDY    59  52  77 E3        30.17R
DES MOINES IA  CLOUDY    62  56  80 NE6       30.14F
DAVENPORT IA   CLOUDY    60  57  89 N8        30.09F
CHICAGO IL     CLOUDY    62  58  86 NE10      30.05S
EAU CLAIRE WI  PTCLDY    56  53  90 NE5       30.19F
LA CROSSE WI   CLOUDY    64  55  72 E7        30.16F
$$

  *****  SOME NATIONAL WEATHER *****

CITY           SKY/WX    TMP DP  RH WIND       PRES   REMARKS
LA GUARDIA NY  CLOUDY    58  55  90 N14       30.23S
RALEIGH NC     CLOUDY    72  71  97 CALM      30.04R
ATLANTA GA     CLEAR     61  49  64 W5        30.08R
NEW ORLEANS LA PTCLDY    74  58  57 N5        30.07R
OKLAHOMA CITY  MOCLDY    61  51  70 SE3       30.11S
ALBUQUERQUE NM PTCLDY    68  46  45 NW3       30.20R
SALT LAKE CITY CLEAR     67  46  47 SE10      30.07R
LOS ANGELES CA CLEAR     70  60  70 SW7       29.95R
BOISE ID       PTCLDY    73  45  36 SE24G31   29.84S
SEATTLE WA     PTCLDY    56  41  57 SW7       29.98R
$$

*** WEATHER ACROSS MANITOBA...SASKATCHEWAN AND ONTARIO ***
                ***ONTARIO***

CITY           SKY/WX    TMP DP  RH WIND       PRES   REMARKS
GERALDTON      CLEAR     46  46 100 CALM      30.34F
THUNDER BAY    MOCLDY    45  45 100 W5        30.30F FOG
SIOUX LOOKOUT  CLEAR     43  43 100 SE3       30.29F
TORONTO        DRIZZLE   57  54  88 E14G20    30.21F
BIG TROUT LK   PTCLDY    54  50  87 S8        30.26F
PICKLE LAKE    NOT AVBL
DRYDEN         CLEAR     52  50  93 SE8       30.28F
KENORA         CLEAR     50  50 100 S6        30.26F
$$
                *** MANITOBA***

CITY           SKY/WX    TMP DP  RH WIND       PRES   REMARKS
BRANDON        CLOUDY    55  52  88 E7        30.10F
DAUPHIN        CLOUDY    61  52  72 S10       30.06F
ISLAND LAKE    PTCLDY    54  48  82 S5        30.19
PILOT MOUND      N/A     59  48  67 S14         N/A
THE PAS        PTCLDY    54  50  87 E8        30.00F
THOMPSON       PTCLDY    43  43 100 NE6       30.12F
WINNIPEG       MOCLDY    57  52  82 SE13G18   30.17S
LYNN LAKE      LGT RAIN  46  46 100 NE12G18   30.12S FOG
CHURCHILL      LGT RAIN  43  37  81 SE12      30.35S
GILLAM         FOG       50  50 100 NE9       30.19S VSB 1/2
$$
                ***SASKATCHEWAN***

CITY           SKY/WX    TMP DP  RH WIND       PRES   REMARKS
ESTEVAN        PTCLDY    52  50  93 E9        30.02F
KINDERSLEY     PTCLDY    48  46  93 NE7       30.01S
LLOYDMINSTER   CLOUDY    48  46  93 NE15      30.07F
PRINCE ALBERT  MOCLDY    52  50  93 N6        30.01R
REGINA         PTCLDY    52  50  93 SE14      29.99S
YORKTON        CLEAR     55  52  88 SE12      30.02S  C1F1C2F2C3F3C4F4C5F5C6F6C7F7C8F8C9F9CaFaCbFbCcFcCdFdCe!


USA.gov is the U.S. government's official web portal to all federal, state and local government web resources and services.